SCP
2 2 2 2 2 2 2 3 3 2 2 2 2 2 2 2 2 1 1 2 2 2 2 2 2 2 2 2 2 2 2 2 2 1 1 0 0 0 0 0 0 0 0
2 2 2 2 2 2 3 3 3 2 2 3 3 2 2 2 2 1 1 2 2 2 2 2 3 2 2 2 2 2 2 2 2 1 0 0 0 0 0 0 0 0 0
2 2 2 3 3 3 3 3 3 2 2 3 3 3 2 2 2 1 1 2 2 2 2 3 3 3 2 2 2 2 2 2 1 1 0 0 0 0 0 0 0 0 0
2 2 2 2 2 3 3 3 3 3 3 3 3 3 3 2 2 2 2 2 2 2 2 3 3 3 2 2 2 2 2 1 1 0 0 0 0 0 0 0 0 0 0
2 2 2 2 3 3 3 3 3 3 3 3 4 4 3 3 2 2 2 2 2 2 2 3 3 3 2 2 2 2 2 1 1 0 0 0 0 0 0 0 0 0 0
2 2 2 3 4 4 4 4 4 4 4 4 4 4 4 3 2 2 2 2 2 2 2 3 3 3 3 3 2 2 2 2 1 1 0 0 0 0 0 0 0 0 0
2 3 3 5 6 6 5 5 5 5 5 5 4 4 4 4 3 2 2 2 2 2 3 3 3 3 3 3 3 3 3 3 2 2 1 1 0 0 0 0 0 0 0
4 4 5 7 9 9 8 7 7 6 5 5 4 4 4 5 4 3 2 2 2 3 3 4 3 3 4 4 4 3 3 3 3 2 2 1 1 1 1 0 0 0 0
8 8 8 9 10 10 9 8 7 6 5 4 3 3 4 5 4 4 3 3 3 4 4 3 3 3 3 4 4 4 4 4 4 3 2 2 1 1 1 1 1 0 0
12 13 12 12 12 11 9 7 6 5 4 3 4 3 4 4 4 5 5 4 4 4 3 3 3 3 3 4 4 4 4 4 4 3 2 2 2 2 2 1 1 1 1
15 16 15 14 12 10 8 6 5 4 4 4 4 4 4 4 4 5 5 5 5 4 3 3 3 3 3 3 4 4 4 4 3 3 2 2 2 2 2 2 1 1 1
16 16 15 13 11 9 7 6 5 4 5 6 6 5 5 5 5 5 5 5 5 4 3 3 3 4 3 3 2 2 2 3 3 2 2 2 2 2 2 2 2 2 2
14 14 13 12 10 8 7 6 5 5 6 6 7 6 5 5 5 5 4 5 5 4 3 3 3 4 3 2 2 2 2 2 2 2 2 2 2 2 3 3 3 3 3
11 11 11 10 9 8 7 6 6 6 6 7 7 6 5 5 4 4 4 4 5 4 3 3 4 4 3 3 2 2 2 2 2 2 1 1 1 2 2 2 2 3 3
10 11 12 11 9 8 7 7 7 7 7 6 6 6 5 5 4 4 4 5 5 5 4 5 5 4 4 3 3 2 2 2 2 1 1 1 1 1 1 2 2 2 2
12 13 14 12 10 9 8 8 8 8 7 7 5 5 5 5 4 4 4 5 5 5 5 5 6 5 4 3 3 3 2 2 2 1 1 1 1 1 1 1 1 1 2
14 14 14 12 10 10 9 9 9 10 10 8 6 5 5 4 5 5 5 5 5 4 4 5 5 6 5 3 2 2 3 2 2 1 1 1 1 1 1 1 1 1 1
16 16 15 12 10 9 9 10 11 12 12 10 7 6 5 4 5 5 5 4 4 3 3 3 4 5 4 2 1 2 2 3 2 2 1 1 1 1 1 1 1 0 0
20 19 16 13 10 10 10 10 11 11 10 9 7 6 5 4 5 5 5 4 3 2 2 2 2 3 2 1 1 1 2 2 2 2 2 1 1 1 1 1 1 0 0
21 19 15 13 12 11 10 9 9 8 7 7 7 6 6 5 5 5 4 3 2 2 1 1 1 2 2 1 0 0 1 2 2 2 2 2 1 1 1 1 1 1 1
18 17 15 14 13 11 10 8 7 6 6 6 7 7 7 6 5 4 4 3 2 1 1 1 1 1 1 1 1 0 1 1 2 2 2 2 1 1 1 1 1 1 1
15 15 15 14 13 11 9 9 8 7 7 7 7 7 7 6 4 3 3 2 2 2 1 1 1 1 1 1 1 1 1 1 2 3 3 2 1 1 0 0 1 1 1
12 13 13 12 11 9 9 9 9 9 9 10 9 8 7 5 4 3 3 2 2 2 2 1 1 1 1 2 2 2 1 1 2 2 2 1 1 0 0 0 0 0 0
9 10 10 9 8 7 7 7 7 8 10 12 11 10 8 6 4 4 4 4 4 4 3 3 2 2 2 2 3 4 3 2 2 2 1 1 0 0 0 0 0 1 1
7 7 7 6 6 5 5 4 4 5 8 12 14 13 11 9 6 5 4 4 4 4 3 3 3 2 2 3 5 6 7 6 4 2 1 1 1 0 0 0 0 1 1
6 6 5 5 5 4 4 3 3 3 6 11 15 15 14 12 8 5 4 4 3 2 2 2 2 3 3 3 5 8 9 8 5 3 1 1 1 1 0 0 0 0 0
Wind_Speed
9 9 8 8 7 6 6 6 5 4 3 2 2 2 1 1 1 1 2 2 2 2 2 2 2 2 2 1 1 2 2 1 2 2 2 2 1 1 1 2 2 2 2
8 9 9 9 8 8 6 6 5 5 4 3 2 2 2 1 1 0 1 1 2 2 2 3 2 1 2 1 1 2 2 1 1 2 1 1 3 2 0 1 2 2 2
12 11 11 10 9 9 8 7 6 6 5 4 3 2 2 2 1 1 0 0 1 2 2 2 2 1 2 1 1 2 3 2 1 2 3 2 2 1 2 0 1 2 1
11 11 10 10 10 10 8 7 7 6 5 5 4 4 3 2 2 1 1 0 1 1 2 2 2 2 2 1 1 1 1 2 1 1 1 2 3 3 0 1 1 0 1
13 13 13 12 10 10 9 8 7 6 5 5 5 4 3 2 1 1 1 0 0 1 1 2 2 2 1 1 1 1 1 1 2 1 1 1 1 1 2 1 1 1 0
13 12 11 10 9 8 8 8 7 6 5 5 5 5 4 3 2 1 1 0 0 1 1 2 2 1 1 1 1 1 1 1 1 1 1 1 1 2 2 2 1 0 1
12 11 11 10 10 9 9 8 8 6 6 6 5 5 5 4 3 2 2 2 1 0 0 1 1 1 1 1 1 1 1 1 1 1 1 1 1 2 2 3 2 1 0
11 12 12 11 11 11 10 9 9 7 7 6 5 4 4 3 2 2 2 2 2 1 1 2 1 1 1 1 1 1 0 1 1 1 1 0 0 1 2 3 3 2 0
12 11 11 10 10 10 10 10 9 7 7 6 5 4 4 4 3 2 2 1 1 2 2 2 2 1 1 1 2 1 1 1 1 1 1 1 1 1 1 2 2 3 2
10 11 11 10 9 9 8 9 8 8 7 6 5 4 3 3 3 3 2 2 1 2 2 2 2 2 1 1 2 1 1 2 1 1 2 1 1 1 1 1 1 2 3
10 10 9 10 9 8 8 8 7 7 6 6 5 5 4 3 3 2 2 2 2 2 3 2 3 2 2 2 2 2 2 2 2 2 2 1 1 1 1 1 2 2 3
10 9 9 9 8 8 8 8 7 7 6 6 5 5 4 4 4 3 2 2 3 2 3 3 3 3 2 2 2 2 2 2 2 2 2 1 2 2 1 2 2 2 2
8 8 9 9 9 8 8 7 7 7 6 6 5 5 5 4 3 3 3 3 3 3 3 3 3 2 2 2 2 2 2 2 1 1 1 1 2 2 2 2 2 2 2
9 9 8 7 8 8 8 8 6 6 7 6 6 5 4 4 4 4 4 3 3 3 3 3 2 2 2 2 2 2 2 2 1 1 1 1 2 2 2 3 2 3 3
9 10 9 8 8 8 7 7 7 6 7 7 6 5 5 5 4 4 4 4 4 4 3 3 3 2 2 2 2 3 3 2 2 1 1 1 3 4 3 3 3 3 3
10 10 9 9 8 8 8 7 7 6 7 7 5 5 5 5 4 4 4 4 4 3 4 3 3 2 2 3 4 3 2 2 2 1 1 1 2 3 4 4 5 5 5
9 10 9 8 8 8 8 8 7 7 7 7 5 5 5 5 4 5 4 4 3 3 3 3 3 2 2 3 4 4 2 2 1 1 1 1 1 2 1 3 3 3 4
9 9 8 7 6 6 7 7 7 7 7 6 6 5 6 5 4 4 4 3 3 3 3 2 2 2 1 3 3 4 2 1 1 1 1 1 0 1 2 3 2 1 1
9 8 8 8 7 8 8 9 7 7 7 6 5 5 6 5 5 5 4 3 3 2 2 2 2 2 1 2 3 3 1 1 0 0 0 1 1 1 4 4 3 1 1
8 8 8 8 8 7 9 9 7 6 6 5 5 5 5 6 5 5 4 3 3 3 2 2 1 2 1 2 3 3 2 1 0 1 1 1 2 2 3 3 3 2 1
8 8 9 8 7 7 9 9 7 6 5 5 5 4 4 5 5 4 3 3 3 3 2 2 1 1 1 2 3 3 2 2 1 1 1 1 1 2 2 2 2 3 2
8 8 7 7 6 7 9 8 6 5 5 5 5 4 4 4 4 4 3 4 4 3 2 2 1 0 0 1 1 2 2 2 2 1 1 1 1 2 1 1 1 2 2
7 7 8 7 6 6 7 8 5 5 6 5 5 4 4 3 3 4 4 3 3 3 2 2 2 1 1 1 0 1 2 2 1 0 0 1 1 2 1 1 1 1 1
6 6 8 7 6 5 5 6 6 6 6 5 4 4 4 3 2 2 2 3 3 3 3 3 2 1 1 1 0 0 1 1 1 0 1 2 3 2 2 1 1 0 1
5 6 7 7 6 5 5 5 5 6 6 5 3 3 3 3 3 2 1 2 2 3 4 4 4 4 3 3 3 2 2 2 2 1 1 1 1 1 1 1 1 0 1
5 6 6 6 6 5 5 4 5 6 6 4 3 2 2 3 3 3 2 3 1 1 2 3 3 2 3 4 3 3 3 3 4 3 1 1 1 1 1 1 1 0 0
Wind_Direction
174 161 161 159 153 154 152 150 149 159 143 129 125 124 127 111 89 109 129 135 140 133 124 128 123 126 129 137 141 137 131 131 117 90 43 13 36 117 157 154 149 153 176
169 167 170 167 166 168 168 161 160 161 161 160 153 148 144 140 152 137 118 139 133 135 135 133 139 136 121 113 122 143 147 172 154 133 103 26 10 10 96 136 155 169 165
177 176 176 176 171 173 176 173 171 166 167 156 129 104 82 68 69 63 72 89 123 125 132 134 139 135 130 145 179 167 163 183 221 165 149 151 198 293 347 347 179 170 170
179 179 181 180 179 182 178 172 169 167 168 157 147 144 142 151 185 184 168 98 113 130 141 143 144 140 129 141 202 185 176 157 185 238 175 167 164 157 209 340 352 149 170
180 182 186 185 181 179 177 173 167 168 168 164 163 155 154 168 170 141 119 88 42 102 134 132 132 140 141 149 144 80 122 141 161 169 159 109 103 148 161 205 316 6 334
183 184 184 180 177 176 174 170 166 171 170 165 162 163 165 166 151 151 141 129 57 39 79 121 122 130 134 141 146 111 101 116 117 120 129 154 168 184 171 176 186 204 310
178 177 175 175 175 175 175 169 166 173 175 169 171 175 176 171 171 175 168 158 130 72 233 136 124 127 142 133 108 102 94 104 101 121 158 167 187 165 154 150 169 174 307
179 178 177 176 176 175 174 169 171 175 176 174 181 182 176 171 175 172 162 164 170 174 150 128 129 120 117 111 98 90 99 78 86 63 74 88 98 124 145 157 153 135 34
177 176 174 174 174 174 174 173 171 173 176 179 178 182 176 169 170 164 148 146 157 139 122 124 118 104 100 104 107 85 69 67 64 67 69 71 66 95 112 136 154 154 161
169 172 171 172 176 173 170 167 167 173 175 173 173 170 174 169 161 144 142 141 137 123 113 108 109 106 99 102 105 92 66 81 57 73 72 55 45 94 88 119 108 122 141
165 168 168 170 170 163 160 163 166 163 161 163 160 155 156 149 140 144 160 150 130 126 124 121 111 102 90 87 93 92 78 80 52 47 72 52 73 89 81 92 96 98 116
163 161 161 159 157 156 157 163 165 164 167 163 155 156 153 145 142 146 149 137 136 132 131 116 106 103 100 99 103 97 84 87 74 50 56 43 79 77 80 98 108 112 123
145 145 148 154 156 156 156 160 162 162 158 147 141 140 138 139 142 140 135 134 135 123 113 108 112 110 109 109 110 111 99 97 99 86 81 65 91 90 89 103 107 112 109
145 142 143 148 149 146 147 147 150 148 144 139 139 142 143 138 138 130 121 124 126 124 122 117 118 114 109 111 119 112 104 91 73 67 76 82 107 121 124 115 115 114 105
146 143 143 144 140 137 139 140 137 136 135 134 136 142 136 124 116 113 113 111 111 117 118 106 95 95 104 108 121 125 116 104 81 52 44 73 95 104 119 125 134 128 119
152 147 143 144 143 142 139 133 133 135 131 132 136 139 132 125 122 118 114 115 112 109 104 103 102 93 95 90 104 118 112 110 103 72 27 51 64 79 94 115 130 140 144
155 151 149 150 148 145 141 139 139 132 129 134 140 137 131 129 132 128 117 121 120 115 115 113 108 101 84 97 109 115 124 117 123 117 69 49 45 65 102 102 99 118 142
155 153 149 142 139 133 127 127 127 127 133 140 144 146 141 138 132 127 132 130 123 123 127 125 124 123 105 104 112 118 116 110 111 142 162 155 320 115 128 123 102 92 139
148 145 141 134 130 129 127 120 120 127 134 143 150 151 147 140 134 137 147 146 136 131 132 133 131 135 127 114 123 123 124 117 5 262 141 153 148 120 124 120 117 86 359
124 127 125 122 127 133 130 122 124 131 144 151 149 146 145 146 151 156 156 149 141 140 135 123 132 136 129 113 127 127 143 140 259 342 349 94 133 122 122 133 140 149 225
120 122 123 124 132 135 130 128 131 143 153 145 134 133 142 147 151 149 144 138 132 125 119 119 97 99 114 115 120 130 150 171 183 226 287 287 143 128 124 141 156 188 174
117 118 120 120 123 127 128 129 137 143 136 134 132 135 140 144 139 137 138 140 141 140 138 124 104 28 0 102 126 132 150 153 154 206 258 274 127 127 130 137 111 121 124
120 119 123 119 117 125 128 130 140 134 125 126 135 136 130 127 135 143 149 149 154 161 166 160 170 234 301 308 265 142 146 135 136 204 186 92 87 82 55 40 90 108 121
130 129 127 128 130 133 129 133 138 133 127 129 139 146 140 137 133 134 149 155 167 177 182 182 190 212 240 270 278 201 121 112 97 64 58 72 72 66 48 30 25 129 167
141 138 138 142 144 139 131 132 133 131 132 136 141 145 145 144 138 134 148 172 193 194 188 192 187 186 215 237 215 181 178 180 181 132 66 52 48 42 27 13 339 4 62
142 141 143 144 144 141 138 137 137 135 137 143 153 159 163 153 144 135 95 42 101 113 165 186 179 199 209 206 193 180 174 169 150 128 145 181 188 199 213 210 245 220 175